CW7364 Weather Reports


Display with metric or nautical units.
time (UTC)temp
F
wind
direction
speed
MPH
gust
MPH
rain 1hr
in
rain 24hr
in
rain mn
in
humidity
%
barometer
mb
20260510013016 77 90 4.0 6.0 0.00 0.00 0.00 69 1007.0
20260510012015 77 90 3.0 6.0 0.00 0.00 0.00 68 1006.9
20260510011015 79 68 3.0 4.0 0.00 0.00 0.00 65 1006.9
20260510010015 80 113 2.0 3.0 0.00 0.00 0.00 64 1006.7
20260510005015 82 135 3.0 5.0 0.00 0.00 0.00 62 1006.6
20260510004015 82 135 4.0 6.0 0.00 0.00 0.00 60 1006.7
20260510003016 83 135 4.0 7.0 0.00 0.00 0.00 57 1006.6
20260510002016 84 113 4.0 7.0 0.00 0.00 0.00 56 1006.5
20260510001035 84 113 5.0 9.0 0.00 0.00 0.00 55 1006.6
20260510000036 85 113 6.0 9.0 0.00 0.00 0.00 55 1006.7
20260509235015 85 113 6.0 9.0 0.00 0.00 0.00 55 1006.7
20260509234015 86 113 5.0 8.0 0.00 0.00 0.00 57 1006.8
20260509233017 86 113 7.0 10.0 0.00 0.00 0.00 55 1007.0
20260509232017 86 90 6.0 12.0 0.00 0.00 0.00 55 1007.0
20260509231017 87 113 5.0 9.0 0.00 0.00 0.00 55 1007.1
20260509230017 87 113 6.0 10.0 0.00 0.00 0.00 55 1007.2
20260509225017 87 113 8.0 11.0 0.00 0.00 0.00 55 1007.2
20260509224017 87 113 7.0 12.0 0.00 0.00 0.00 54 1007.3
20260509223017 87 113 5.0 9.0 0.00 0.00 0.00 52 1007.1
20260509222057 88 113 7.0 12.0 0.00 0.00 0.00 52 1007.2
20260509221057 88 135 3.0 5.0 0.00 0.00 0.00 48 1007.2
20260509220017 88 90 6.0 13.0 0.00 0.00 0.00 47 1007.1
20260509215017 88 135 3.0 7.0 0.00 0.00 0.00 47 1007.2
20260509214017 88 45 1.0 4.0 0.00 0.00 0.00 48 1007.3
20260509213017 88 135 5.0 10.0 0.00 0.00 0.00 47 1007.4
20260509212017 88 90 3.0 7.0 0.00 0.00 0.00 48 1007.6
20260509211016 88 135 3.0 7.0 0.00 0.00 0.00 47 1007.8
20260509210016 88 90 2.0 4.0 0.00 0.00 0.00 47 1007.9
20260509205017 88 113 2.0 7.0 0.00 0.00 0.00 50 1008.1
20260509204016 88 68 5.0 9.0 0.00 0.00 0.00 51 1008.2
20260509203017 87 90 4.0 10.0 0.00 0.00 0.00 52 1008.2
20260509202017 87 68 4.0 7.0 0.00 0.00 0.00 51 1008.4
20260509201037 87 180 2.0 6.0 0.00 0.00 0.00 49 1008.5
20260509200036 87 68 3.0 7.0 0.00 0.00 0.00 49 1008.6
20260509195016 87 90 4.0 8.0 0.00 0.00 0.00 50 1008.7
20260509194018 86 113 1.0 4.0 0.00 0.00 0.00 50 1008.8
20260509193016 86 68 4.0 9.0 0.00 0.00 0.00 53 1009.0
20260509192017 86 23 3.0 7.0 0.00 0.00 0.00 54 1009.1
20260509191057 86 68 2.0 5.0 0.00 0.00 0.00 54 1009.2
20260509190016 85 68 4.0 9.0 0.00 0.00 0.00 56 1009.3
20260509185036 85 90 4.0 9.0 0.00 0.00 0.00 57 1009.2
20260509184016 85 135 2.0 8.0 0.00 0.00 0.00 56 1009.3
20260509183016 85 90 3.0 8.0 0.00 0.00 0.00 56 1009.4
20260509182016 85 23 1.0 5.0 0.00 0.00 0.00 61 1009.6
20260509181016 84 68 4.0 9.0 0.00 0.00 0.00 59 1009.7
20260509180016 83 68 4.0 9.0 0.00 0.00 0.00 60 1009.7
20260509175016 83 45 4.0 9.0 0.00 0.00 0.00 62 1009.8
20260509174016 83 293 4.0 8.0 0.00 0.00 0.00 63 1009.9
20260509173016 82 293 2.0 8.0 0.00 0.00 0.00 64 1010.0
20260509172016 81 23 5.0 9.0 0.00 0.00 0.00 63 1010.2
20260509171016 81 315 4.0 9.0 0.00 0.00 0.00 63 1010.3
20260509170016 81 293 5.0 10.0 0.00 0.00 0.00 64 1010.3
20260509165016 81 293 2.0 5.0 0.00 0.00 0.00 64 1010.4
20260509164016 81 293 5.0 10.0 0.00 0.00 0.00 63 1010.4
20260509163016 81 293 3.0 11.0 0.00 0.00 0.00 65 1010.6
20260509162015 80 293 3.0 9.0 0.00 0.00 0.00 65 1010.6
20260509161016 79 293 5.0 8.0 0.00 0.00 0.00 66 1010.6
20260509160016 78 315 4.0 9.0 0.00 0.00 0.00 67 1010.5
20260509155015 78 315 4.0 9.0 0.00 0.00 0.00 67 1010.6
20260509154016 78 293 3.0 8.0 0.00 0.00 0.00 67 1010.4
20260509153016 77 270 3.0 7.0 0.00 0.00 0.00 67 1010.5
20260509152015 76 293 4.0 8.0 0.00 0.00 0.00 69 1010.4
20260509151015 75 293 5.0 10.0 0.00 0.00 0.00 69 1010.4
20260509150015 75 270 4.0 8.0 0.00 0.00 0.00 70 1010.5
20260509145015 74 270 3.0 7.0 0.00 0.00 0.00 72 1010.5
20260509144035 73 293 4.0 8.0 0.00 0.00 0.00 74 1010.4
20260509143015 73 293 4.0 8.0 0.00 0.00 0.00 78 1010.4
20260509142015 72 293 3.0 6.0 0.00 0.00 0.00 81 1010.4
20260509141035 72 293 4.0 7.0 0.00 0.00 0.00 81 1010.5
20260509140015 71 270 3.0 4.0 0.00 0.00 0.00 82 1010.5
20260509135035 71 293 3.0 7.0 0.00 0.00 0.00 83 1010.5
20260509134037 70 293 3.0 7.0 0.00 0.00 0.00 85 1010.4
20260509133017 68 270 3.0 6.0 0.00 0.00 0.00 86 1010.3
20260509132017 67 293 4.0 8.0 0.00 0.00 0.00 88 1010.3
20260509131017 66 270 4.0 7.0 0.00 0.00 0.00 89 1010.3
20260509130017 66 293 2.0 4.0 0.00 0.00 0.00 90 1010.2
20260509125017 65 270 3.0 4.0 0.00 0.00 0.00 90 1010.2
20260509124017 65 293 2.0 3.0 0.00 0.00 0.00 91 1010.2
20260509123017 64 0.0 3.0 0.00 0.00 0.00 91 1010.1
20260509122017 64 0.0 0.0 0.00 0.00 0.00 91 1010.0
20260509121017 63 0.0 0.0 0.00 0.01 0.00 91 1009.9
20260509120017 63 0.0 0.0 0.00 0.02 0.00 91 1009.8
20260509115017 63 0.0 0.0 0.00 0.02 0.00 90 1009.8
20260509114017 64 0.0 0.0 0.00 0.02 0.00 91 1009.6
20260509113016 64 0.0 0.0 0.00 0.03 0.00 90 1009.8
20260509112017 65 0.0 0.0 0.00 0.04 0.00 91 1009.5
20260509111037 65 0.0 0.0 0.00 0.04 0.00 91 1009.5
20260509110017 64 0.0 0.0 0.00 0.04 0.00 91 1009.4
20260509105037 64 0.0 2.0 0.00 0.04 0.00 90 1009.4
20260509104017 65 270 1.0 3.0 0.00 0.04 0.00 90 1009.0
20260509103016 65 0.0 0.0 0.00 0.04 0.00 90 1008.9
20260509102017 66 0.0 0.0 0.00 0.04 0.00 90 1009.0
20260509101016 66 270 1.0 3.0 0.00 0.05 0.00 90 1008.8
20260509100016 67 23 3.0 10.0 0.00 0.05 0.00 90 1008.3
20260509095016 67 23 5.0 11.0 0.00 0.05 0.00 90 1008.1
20260509094016 67 45 6.0 12.0 0.00 0.05 0.00 89 1007.7
20260509093016 67 23 6.0 11.0 0.00 0.05 0.00 89 1007.7
20260509092037 68 45 7.0 13.0 0.00 0.05 0.00 89 1007.6
20260509091037 68 23 6.0 12.0 0.00 0.05 0.00 88 1007.6
20260509090036 68 23 7.0 13.0 0.00 0.05 0.00 88 1007.5
20260509085016 68 45 9.0 15.0 0.00 0.05 0.00 87 1007.5
20260509084016 68 23 8.0 15.0 0.00 0.05 0.00 86 1007.5
20260509083016 69 23 5.0 11.0 0.00 0.05 0.00 84 1007.8
20260509082016 69 270 4.0 9.0 0.00 0.05 0.00 83 1008.0
20260509081016 70 315 5.0 12.0 0.00 0.05 0.00 81 1007.9
20260509080016 71 0 7.0 14.0 0.00 0.05 0.00 77 1007.6
20260509075036 70 0 6.0 15.0 0.00 0.05 0.00 77 1007.3
20260509074036 71 135 1.0 3.0 0.00 0.05 0.00 79 1006.6
20260509073016 70 203 4.0 6.0 0.00 0.05 0.00 81 1007.0
20260509072016 70 203 1.0 3.0 0.00 0.05 0.00 84 1007.1
20260509071016 70 113 8.0 13.0 0.00 0.05 0.00 85 1007.2
20260509070016 69 135 4.0 11.0 0.00 0.05 0.00 87 1007.1
20260509065016 69 180 5.0 9.0 0.00 0.05 0.00 89 1008.5
20260509064036 69 203 5.0 9.0 0.00 0.05 0.00 89 1009.0
20260509063036 69 203 3.0 6.0 0.00 0.05 0.00 89 1009.1
20260509062016 69 203 3.0 5.0 0.00 0.05 0.00 89 1009.5
20260509061016 68 203 2.0 4.0 0.00 0.05 0.00 89 1009.9
20260509060015 68 225 3.0 5.0 0.00 0.05 0.00 89 1010.4
20260509055016 68 225 2.0 7.0 0.00 0.05 0.00 89 1010.5
20260509054015 68 225 1.0 3.0 0.00 0.05 0.00 88 1010.1
20260509053016 68 203 2.0 3.0 0.00 0.05 0.00 88 1010.1
20260509052016 68 203 2.0 3.0 0.00 0.05 0.00 88 1010.0
20260509051015 68 203 1.0 4.0 0.00 0.05 0.00 87 1010.0
20260509050036 69 0.0 2.0 0.00 0.05 0.05 87 1010.3
20260509045016 69 180 5.0 8.0 0.00 0.05 0.05 87 1010.1
20260509044016 69 180 3.0 4.0 0.00 0.05 0.05 87 1010.8
20260509043016 69 0.0 2.0 0.00 0.05 0.05 88 1011.3
20260509042036 69 23 3.0 6.0 0.00 0.05 0.05 88 1011.5
20260509041016 68 293 4.0 10.0 0.00 0.05 0.05 89 1011.5
20260509040016 68 113 1.0 4.0 0.00 0.05 0.05 87 1010.1
20260509035016 68 0.0 0.0 0.00 0.05 0.05 87 1009.1
20260509034036 68 0.0 3.0 0.00 0.05 0.05 87 1009.3
20260509033016 68 135 2.0 4.0 0.00 0.05 0.05 87 1008.9
20260509032036 68 158 4.0 7.0 0.00 0.05 0.05 86 1008.7
20260509031016 69 135 5.0 8.0 0.00 0.05 0.05 86 1008.7
20260509030016 68 113 6.0 10.0 0.00 0.05 0.05 86 1008.8
20260509025016 68 113 6.0 10.0 0.00 0.05 0.05 86 1008.6
20260509024016 68 90 6.0 10.0 0.00 0.05 0.05 86 1008.4
20260509023016 69 68 6.0 11.0 0.00 0.05 0.05 85 1008.8
20260509022015 69 68 5.0 9.0 0.00 0.05 0.05 84 1008.5
20260509021035 70 158 2.0 5.0 0.00 0.05 0.05 84 1007.7
20260509020016 70 158 2.0 6.0 0.00 0.05 0.05 83 1007.1
20260509015016 70 158 5.0 10.0 0.00 0.05 0.05 83 1006.5
20260509014035 71 158 4.0 8.0 0.00 0.05 0.05 82 1006.5